Hourly Data Report for April 18, 2005

TORONTO CITY
ONTARIO

43°40'00.000" N
79°24'00.000" W
112.50 m
6158355
71508
XTO

Download Data

Hourly Data (April 2005)
Hourly Data Report for April 18, 2005
TIME
LST
Temp Definition
°C
Dew Point Definition
°C
Rel Hum Definition
%
Precip. Amount Definition
mm

Wind Dir Definition
10's deg

Wind Spd Definition
km/h
Visibility Definition
km
Stn Press Definition
kPa
Hmdx Definition


Wind Chill Definition


Weather Definition


00:00 13.4 6.5 63   LegendMM LegendMM   100.77     LegendNANA
01:00 12.6 6.2 65   LegendMM LegendMM   100.77     LegendNANA
02:00 12.1 6.1 67   LegendMM LegendMM   100.75     LegendNANA
03:00 11.4 5.5 67   LegendMM LegendMM   100.77     LegendNANA
04:00 10.7 5.2 69   LegendMM LegendMM   100.81     LegendNANA
05:00 11.1 5.3 67   LegendMM LegendMM   100.82     LegendNANA
06:00 10.8 4.9 67   LegendMM LegendMM   100.91     LegendNANA
07:00 12.4 3.3 54   LegendMM LegendMM   100.92     LegendNANA
08:00 14.5 0.1 37   LegendMM LegendMM   100.94     LegendNANA
09:00 13.9 -0.8 36   LegendMM LegendMM   100.97     LegendNANA
10:00 14.1 0.0 38   LegendMM LegendMM   100.99     LegendNANA
11:00 14.9 -0.4 35   LegendMM LegendMM   100.97     LegendNANA
12:00 15.0 -0.4 35   LegendMM LegendMM   100.92     LegendNANA
13:00 15.3 -0.8 33   LegendMM LegendMM   100.86     LegendNANA
14:00 15.6 -0.7 33   LegendMM LegendMM   100.80     LegendNANA
15:00 15.4 0.0 35   LegendMM LegendMM   100.73     LegendNANA
16:00 15.9 0.3 35   LegendMM LegendMM   100.65     LegendNANA
17:00 16.9 0.6 33   LegendMM LegendMM   100.57     LegendNANA
18:00 14.0 -0.5 37   LegendMM LegendMM   100.56     LegendNANA
19:00 13.0 -0.1 41   LegendMM LegendMM   100.53     LegendNANA
20:00 11.6 -0.4 43   LegendMM LegendMM   100.56     LegendNANA
21:00 12.1 -0.2 43   LegendMM LegendMM   100.57     LegendNANA
22:00 11.5 1.4 50   LegendMM LegendMM   100.55     LegendNANA
23:00 11.4 1.7 51   LegendMM LegendMM   100.53     LegendNANA

Notes on Data Quality.

Legend

  • E = Estimated
  • M = Missing
  • NA = Not Available*
  • [empty] = Indicates an unobserved value
Date modified: